Wind_Speed
10 9 10 11 11 12 12 11 11 10 9 9 9 9 7 6 5 4 10 9 8 8 8 8 8 9 9 9 8 11 14 16 16 18 19 21 22 23 24 25 25 24 23
11 11 11 11 12 12 12 12 11 11 10 10 10 9 7 6 4 3 3 10 7 7 7 7 7 7 6 6 6 6 11 13 13 14 14 15 17 19 21 22 23 24 25
11 12 12 12 12 11 11 11 11 11 10 10 9 9 7 5 4 6 6 5 10 7 8 8 9 9 9 9 10 10 10 11 10 10 12 12 12 13 14 15 17 18 21
11 11 11 11 12 12 12 12 12 12 11 12 11 9 8 7 6 6 7 6 9 10 10 9 9 10 10 10 11 11 12 12 10 5 8 8 8 7 7 9 11 12 15
10 10 11 11 12 12 12 13 13 13 13 13 13 11 11 7 7 7 7 8 9 9 11 12 12 12 12 12 13 13 14 13 11 8 5 9 9 9 8 9 7 7 9
10 11 11 11 11 12 12 12 13 13 14 15 15 12 12 9 9 7 8 10 12 13 13 14 12 13 12 14 15 15 15 15 13 11 10 8 11 10 11 12 13 13 13
12 12 12 12 12 12 12 13 13 14 13 14 15 12 11 10 8 7 9 10 14 14 13 13 13 14 16 17 17 17 17 16 15 14 14 13 14 15 17 18 18 17 19
14 14 13 13 13 13 13 14 14 14 13 15 14 11 7 8 9 9 12 13 14 14 14 16 17 17 19 18 18 17 17 16 15 14 14 13 15 16 20 17 17 15 17
16 16 16 16 15 15 14 15 15 15 15 14 13 8 5 4 16 6 15 13 13 15 16 18 20 20 19 18 18 18 16 15 15 14 13 14 14 14 14 15 13 11 16
16 17 16 17 17 16 16 16 16 16 16 15 14 11 11 13 6 10 9 16 18 17 20 20 20 22 19 20 20 18 17 16 16 15 15 15 14 16 17 18 16 12 14
16 15 16 16 17 17 17 17 17 18 17 17 16 15 15 15 15 14 18 13 16 19 23 23 21 20 23 20 19 21 19 19 18 17 16 16 15 15 21 20 17 16 14
14 15 16 15 15 16 17 18 19 18 19 20 20 19 19 17 15 15 19 23 22 24 17 23 23 24 22 22 21 21 21 22 20 20 19 19 18 17 23 21 19 17 17
10 13 14 14 14 15 17 19 21 22 22 24 23 23 23 24 23 24 25 29 28 30 25 25 26 22 24 23 22 23 22 22 22 22 23 22 22 22 23 22 20 19 16
9 12 14 15 16 17 19 21 23 23 22 23 24 25 26 27 28 28 28 27 29 29 29 31 27 29 26 24 25 24 23 25 25 25 25 24 25 24 24 24 23 23 21
9 11 13 15 17 18 19 21 22 23 23 24 26 27 28 29 28 30 30 30 29 26 29 28 23 25 29 28 28 26 27 27 28 27 26 26 26 25 25 24 23 23 22
13 15 17 19 20 21 22 22 24 24 25 26 27 28 28 29 29 30 32 34 34 36 38 33 33 31 33 37 35 34 32 31 31 29 27 27 27 26 25 25 24 24 24
16 18 20 21 22 22 23 23 23 24 24 26 26 27 29 29 31 32 32 34 36 36 41 42 37 36 36 36 42 41 38 36 34 29 29 28 27 27 26 26 25 25 24
18 19 20 21 22 23 23 23 24 24 24 26 27 27 28 28 29 31 32 34 36 36 38 44 37 33 33 35 39 41 40 38 37 33 31 30 29 28 28 27 25 25 24
19 20 22 23 24 24 25 25 25 25 26 26 27 28 29 29 29 30 30 30 31 33 34 39 42 36 35 34 35 37 42 45 42 36 34 33 31 30 28 27 26 26 24
21 23 24 25 26 26 26 26 26 29 29 29 29 28 30 29 29 29 29 29 31 31 33 36 39 37 35 34 35 37 42 46 44 37 32 31 30 28 29 27 26 25 24
24 26 28 28 28 28 28 28 29 31 32 32 31 30 28 27 28 31 34 33 32 32 32 33 35 35 34 33 34 37 40 41 37 33 30 31 29 29 27 26 25 23 23
28 29 30 29 30 30 29 29 31 33 34 33 33 31 29 29 31 30 30 28 27 30 33 33 36 37 36 33 34 36 37 32 30 29 32 32 25 26 24 22 21 23 23
31 31 31 31 31 32 31 32 33 34 36 35 33 32 33 32 31 32 32 29 30 29 29 32 36 37 40 40 38 38 37 40 38 29 22 23 19 23 22 22 20 24 22
32 32 31 31 31 32 33 35 35 36 36 35 33 29 27 29 28 27 30 33 34 33 34 34 36 39 40 37 38 43 41 42 37 33 28 24 22 21 21 19 20 23 20
32 30 29 31 33 34 33 34 34 34 35 29 27 28 28 30 31 28 31 34 37 39 37 37 36 37 36 37 34 39 41 33 33 31 27 28 23 15 20 20 17 21 17
30 31 32 32 32 33 33 34 32 31 30 31 29 31 31 30 28 29 32 35 40 44 44 42 39 39 38 37 35 34 40 36 33 27 28 23 20 16 9 10 15 18 14
Wind_Direction
351 356 346 349 347 346 344 344 343 340 336 330 328 325 325 317 320 308 287 302 294 284 280 282 286 290 292 299 304 286 279 278 278 276 277 276 275 272 269 267 265 264 264
359 356 350 351 351 349 347 347 349 348 344 341 340 332 329 330 320 308 266 304 300 297 295 295 289 292 284 290 301 306 293 292 292 290 289 285 282 281 279 275 271 268 264
360 354 351 350 348 347 346 348 348 347 343 339 336 330 326 304 302 304 289 274 309 298 298 298 297 294 292 285 283 288 293 296 302 303 305 303 309 298 295 292 283 279 276
356 352 347 344 343 344 347 349 348 350 343 338 335 321 317 309 291 284 286 280 287 294 303 303 304 303 300 298 299 299 303 307 307 317 319 318 299 297 307 297 293 286 281
343 343 342 342 343 344 349 352 350 350 348 343 340 326 316 290 277 284 278 285 290 289 297 304 306 302 301 299 297 296 297 299 302 290 307 291 275 267 264 268 275 277 284
325 328 333 336 340 341 343 345 345 346 345 345 342 330 318 297 294 284 284 299 298 299 299 302 303 301 295 294 290 289 287 287 286 278 264 285 279 277 267 268 268 272 276
308 314 319 324 330 332 333 335 337 339 339 340 348 329 308 313 296 278 290 293 291 297 296 293 294 297 299 300 295 292 291 289 284 274 261 266 277 275 273 271 271 271 275
299 303 306 309 315 319 323 325 327 330 334 333 340 351 337 304 321 307 286 285 289 296 303 303 303 305 303 301 300 295 293 290 288 286 275 283 279 286 280 283 280 275 278
297 299 300 300 301 305 310 315 321 324 323 326 327 328 329 312 305 299 300 303 293 297 299 297 302 303 302 300 300 296 293 291 288 285 281 275 276 284 297 296 296 300 277
296 300 300 296 294 296 300 306 313 318 318 317 311 310 290 283 297 309 289 308 302 296 296 292 297 301 301 301 295 289 290 287 285 283 280 279 281 285 289 291 290 299 295
293 299 306 304 298 294 295 300 306 311 314 311 306 298 293 292 283 269 292 288 282 300 299 299 296 292 297 298 293 290 289 287 285 284 282 276 279 284 284 288 287 285 292
295 303 308 309 305 299 298 300 303 305 306 304 303 299 292 284 273 268 274 285 285 289 285 286 293 291 290 289 289 287 287 287 285 286 285 280 273 275 282 287 283 282 284
294 300 310 312 311 309 306 302 302 303 303 301 300 297 292 289 287 282 277 281 284 290 285 284 292 289 285 285 285 287 284 281 282 287 288 284 279 277 281 284 282 277 280
304 307 310 311 309 306 303 301 300 302 302 300 297 295 292 288 286 285 283 283 283 282 285 282 285 283 286 280 278 278 279 279 281 286 285 283 282 280 279 281 281 280 278
321 321 317 315 312 310 307 304 303 303 301 300 298 296 293 291 287 285 283 281 276 278 282 283 276 274 283 288 283 278 276 275 281 284 283 281 279 279 278 277 277 279 278
319 318 317 316 315 312 310 307 305 304 301 299 296 294 292 290 289 286 285 284 279 272 270 276 276 273 281 285 285 284 280 275 278 282 283 280 279 277 275 274 274 274 274
325 324 323 322 321 320 317 314 311 308 304 300 297 295 292 291 286 285 281 279 276 275 270 279 276 277 272 270 280 283 283 281 280 278 281 281 279 276 273 272 270 269 270
332 331 330 328 326 323 319 317 314 309 304 301 299 294 289 291 288 288 287 282 275 273 272 275 276 272 268 270 273 275 278 276 276 278 278 280 278 275 272 271 269 267 268
339 338 336 333 330 327 325 323 316 312 309 305 302 298 296 292 288 287 283 281 282 281 275 271 276 276 272 267 264 265 272 278 277 273 273 274 274 272 270 268 268 266 267
341 338 336 334 332 329 329 326 320 315 312 308 305 301 297 294 294 294 290 283 280 278 277 277 277 277 274 272 264 259 262 274 275 274 268 272 271 269 267 265 264 264 266
336 335 334 331 329 328 330 326 320 316 314 310 305 302 296 292 287 285 288 291 291 288 282 279 279 278 274 271 264 263 260 267 260 265 266 268 268 269 268 264 260 260 263
331 330 328 325 324 324 327 324 319 314 313 312 309 302 294 288 291 291 288 287 284 284 281 279 278 274 275 272 271 266 256 251 254 256 253 264 265 260 266 260 262 266 268
326 325 323 322 321 322 324 321 317 313 311 311 310 305 299 298 299 303 304 301 293 288 277 277 279 277 277 276 273 266 253 248 247 246 243 248 245 252 262 263 260 261 264
321 321 321 319 317 321 324 323 319 312 309 308 307 309 301 297 299 298 297 298 299 296 294 294 292 290 280 278 277 265 254 253 248 244 251 244 242 250 255 253 258 263 262
317 315 317 323 323 323 325 324 320 313 310 308 302 303 304 302 303 301 300 302 302 300 299 298 292 295 287 285 279 267 249 241 240 242 231 237 245 247 255 257 250 260 263
315 321 319 320 320 322 328 328 320 311 307 304 302 301 305 304 304 304 302 299 301 301 303 302 297 295 285 289 286 270 245 239 231 232 229 234 240 237 262 255 250 260 253
Height
1530 1528 1527 1525 1523 1522 1521 1519 1517 1515 1513 1512 1510 1509 1508 1508 1508 1507 1505 1503 1503 1502 1502 1501 1501 1501 1500 1500 1499 1499 1498 1498 1498 1499 1499 1498 1498 1498 1499 1499 1499 1501 1501
1529 1528 1527 1524 1523 1521 1520 1518 1516 1514 1513 1511 1509 1508 1507 1507 1506 1505 1504 1500 1501 1500 1500 1499 1499 1498 1498 1497 1497 1496 1495 1495 1495 1495 1494 1494 1494 1494 1494 1494 1494 1494 1495
1529 1528 1526 1525 1522 1520 1519 1518 1516 1514 1512 1510 1508 1507 1505 1505 1504 1503 1502 1500 1498 1499 1498 1497 1497 1496 1495 1495 1494 1493 1493 1492 1492 1492 1491 1491 1491 1490 1490 1490 1489 1490 1490
1529 1528 1526 1524 1522 1520 1518 1517 1515 1513 1511 1509 1507 1505 1504 1502 1501 1500 1499 1498 1497 1497 1496 1495 1495 1494 1493 1493 1492 1491 1490 1490 1489 1489 1489 1489 1488 1488 1488 1487 1487 1487 1486
1529 1527 1525 1524 1522 1521 1518 1516 1515 1513 1511 1509 1506 1504 1502 1501 1500 1499 1498 1497 1496 1495 1494 1493 1493 1492 1491 1490 1489 1488 1488 1487 1487 1487 1487 1486 1485 1485 1484 1484 1483 1483 1483
1528 1526 1525 1523 1521 1520 1518 1516 1514 1513 1510 1508 1506 1503 1501 1499 1498 1497 1497 1495 1494 1493 1492 1491 1489 1488 1488 1486 1485 1485 1484 1484 1484 1483 1483 1483 1482 1481 1480 1480 1480 1480 1480
1526 1525 1523 1522 1520 1519 1517 1515 1514 1512 1510 1508 1504 1503 1500 1498 1497 1496 1495 1494 1493 1490 1489 1487 1486 1485 1484 1483 1482 1481 1481 1480 1480 1479 1479 1479 1478 1477 1476 1476 1476 1476 1476
1524 1523 1522 1520 1519 1518 1516 1514 1512 1510 1509 1507 1505 1502 1501 1500 1496 1495 1495 1492 1490 1488 1487 1485 1484 1483 1481 1480 1478 1478 1477 1476 1475 1475 1475 1475 1474 1472 1471 1471 1470 1471 1470
1522 1521 1520 1518 1517 1515 1514 1512 1510 1509 1507 1506 1504 1504 1502 1499 1496 1493 1492 1490 1489 1486 1484 1482 1480 1478 1477 1476 1474 1473 1473 1472 1472 1471 1470 1469 1469 1468 1466 1466 1465 1465 1464
1519 1518 1517 1515 1514 1513 1512 1510 1508 1506 1505 1504 1503 1501 1501 1499 1496 1492 1490 1488 1486 1484 1482 1479 1477 1475 1473 1472 1471 1470 1469 1469 1468 1467 1466 1466 1465 1463 1461 1460 1460 1460 1458
1516 1515 1514 1512 1511 1510 1509 1507 1505 1504 1502 1501 1500 1499 1497 1495 1494 1492 1486 1486 1485 1481 1478 1475 1473 1471 1469 1468 1467 1466 1465 1465 1464 1463 1462 1461 1460 1459 1457 1456 1455 1454 1453
1514 1513 1511 1509 1508 1507 1505 1504 1502 1501 1499 1497 1496 1495 1493 1492 1490 1489 1485 1481 1479 1476 1474 1471 1468 1466 1465 1463 1462 1461 1460 1460 1459 1458 1457 1456 1455 1453 1451 1450 1449 1448 1447
1512 1511 1509 1507 1505 1504 1502 1501 1499 1497 1495 1493 1492 1490 1488 1486 1485 1483 1481 1476 1473 1470 1469 1465 1463 1462 1460 1458 1457 1456 1455 1454 1453 1452 1451 1451 1449 1448 1446 1445 1444 1443 1442
1510 1508 1506 1505 1503 1501 1499 1497 1495 1492 1491 1489 1487 1485 1483 1481 1480 1478 1475 1473 1468 1465 1463 1460 1459 1455 1455 1454 1453 1451 1450 1449 1447 1446 1445 1444 1443 1442 1441 1439 1438 1437 1436
1507 1505 1504 1502 1500 1497 1495 1493 1491 1488 1486 1484 1482 1480 1478 1476 1474 1471 1469 1468 1466 1460 1454 1454 1455 1451 1448 1447 1447 1446 1445 1443 1442 1441 1439 1438 1437 1435 1434 1433 1432 1431 1430
1504 1502 1501 1498 1496 1493 1491 1489 1486 1483 1481 1479 1476 1474 1472 1470 1467 1465 1462 1460 1459 1456 1447 1449 1449 1449 1445 1441 1440 1438 1437 1436 1435 1434 1432 1431 1430 1429 1428 1427 1426 1424 1423
1502 1499 1497 1494 1492 1489 1486 1483 1481 1478 1475 1473 1471 1468 1465 1464 1460 1458 1456 1453 1450 1449 1441 1437 1439 1440 1440 1436 1433 1431 1429 1428 1427 1427 1425 1424 1423 1422 1421 1420 1419 1418 1417
1499 1496 1493 1490 1487 1484 1482 1479 1476 1473 1470 1467 1464 1462 1459 1457 1454 1451 1448 1446 1444 1442 1438 1428 1431 1431 1430 1430 1427 1424 1423 1421 1419 1419 1417 1416 1415 1414 1413 1412 1412 1411 1410
1496 1493 1490 1486 1483 1480 1477 1474 1470 1467 1464 1461 1458 1455 1452 1450 1446 1444 1442 1439 1437 1434 1431 1425 1419 1422 1420 1421 1419 1416 1413 1412 1410 1410 1409 1408 1407 1406 1406 1405 1405 1404 1403
1493 1490 1486 1483 1479 1476 1472 1469 1465 1461 1457 1454 1451 1448 1445 1443 1440 1437 1434 1432 1429 1427 1424 1419 1413 1412 1411 1411 1410 1408 1403 1402 1399 1400 1400 1399 1398 1398 1397 1398 1397 1397 1397
1489 1485 1481 1478 1474 1471 1468 1463 1459 1454 1450 1446 1444 1441 1438 1436 1433 1430 1427 1423 1420 1416 1414 1411 1407 1405 1402 1401 1400 1399 1395 1394 1392 1392 1390 1390 1390 1390 1390 1389 1389 1390 1390
1483 1480 1476 1472 1469 1466 1463 1458 1453 1447 1443 1439 1435 1432 1430 1427 1424 1421 1418 1416 1414 1410 1406 1403 1399 1396 1394 1393 1392 1391 1389 1387 1383 1384 1382 1381 1383 1382 1383 1383 1383 1383 1383
1478 1474 1471 1467 1463 1459 1456 1452 1446 1440 1435 1431 1427 1424 1421 1418 1415 1411 1408 1405 1403 1401 1399 1396 1390 1387 1383 1384 1383 1380 1379 1376 1375 1377 1375 1374 1375 1376 1377 1377 1377 1377 1377
1472 1468 1464 1461 1456 1453 1449 1443 1438 1432 1427 1423 1420 1416 1413 1410 1408 1405 1401 1397 1394 1391 1388 1385 1381 1376 1374 1372 1372 1370 1367 1367 1368 1368 1369 1367 1368 1370 1371 1371 1371 1371 1371
1466 1462 1458 1453 1449 1445 1442 1437 1431 1425 1420 1416 1413 1410 1408 1404 1401 1399 1395 1389 1384 1379 1377 1374 1370 1366 1363 1362 1362 1358 1356 1359 1360 1360 1362 1362 1362 1364 1365 1365 1366 1364 1365
1459 1454 1450 1448 1444 1439 1435 1430 1425 1419 1413 1410 1407 1403 1401 1398 1394 1392 1388 1382 1374 1368 1365 1360 1357 1354 1352 1350 1349 1348 1346 1349 1353 1353 1355 1357 1357 1359 1360 1359 1360 1359 1360